Location: Halfweg
(53.1000°N, 6.6000°E)
Time: 19:57:32
(UTC+00:00)

Cosmos 2221 - Pass Details

Date: 15 May 2026
Orbit: 569 x 587 km, 82.5° (Epoch: 8 June)

Event Time Altitude Azimuth Distance (km) Brightness Sun altitude
Exits shadow 23:39:36 22° 238° (WSW) 1,303 3.9 -17.8°
Maximum altitude 23:41:42 35° 289° (WNW) 946 3.6 -17.8°
Drops below altitude 10° 23:45:36 10° 357° (N) 1,911 6.3 -17.8°
Sets 23:47:58 0° 6° (N) 2,819 7.7 -17.7°
